Погода в Хабаровске

Погода в Хабаровске : погода сейчас, прогноз погоды и архив. Всё, что Вы хотите узнать о погоде в Хабаровске!

Хотите узнать прогноз погоды в Хабаровске? Тогда Вам сюда: Погода в Хабаровске

Поиск расширенной информации на нашем сайте:

Другие новости

Новости СМИ2

Главная страница сайта

Новости сайта

03.07.2017

Напоминаем, что на нашем специализированном сайте Метеоцентр.Азия вы можете получить высокодетализированные автоматические прогнозы погоды по пунктам России, СНГ и мира в авиационном формате (включающие направление и скорость ветра, видимость, явления погоды, количество и форму облачности, нижнюю и верхнюю границу облачности).


Погода в Хабаровске - сегодня

Время (UTC), дата Ветер
(°,м/с) 
Видим.   Явления Облачность Т
(°С)
Тd
(°С)
f(%) Тe
(°С)
Pmin
(гПа)
dP
(гПа)
Po
(мм)
O2
(г/м3)
Тmin Tmax R s Состояние
почвы
06 16.08.17 050 (СВ) 10 км    8/8 900 м 
+23.8 +16.6 64 +35  1012.9  -0.8  754  276           
09 16.08.17 060 (СВ) 10 км    1/0 верхняя 
[Ci fib]
+21.6 +15.6 69 +31  1013.1  0.1  754  278    +24.1       
12 16.08.17 040 (СВ) 9000 м    ясно 
+17.5 +15.3 87 +27  1013.9  0.9  754  282           
15 16.08.17 030 (СВ) 10 км    ясно 
+16.5 +15.1 91 +26  1014.6  0.5  755  284           
18 16.08.17 020 (С) 10 км    ясно 
+15.5 +14.6 94 +23  1014.3  -0.2  755  285           
21 16.08.17 030 (СВ) 10 км    3/3 300 м 
[St]
+15.5 +14.6 94 +24  1014.9  0.6  755  285  +14.8         
00 17.08.17 060 (СВ) 10 км    4/4 600 м 
[Cu hum]
+19.9 +15.2 74 +29  1015.2  0.3  755  280           
03 17.08.17 060 (СВ) 10 км    8/8 840 м 
[Cu med, cong]
+22.4 +15.4 65 +32  1014.3  -0.8  755  278           
06 17.08.17 040 (СВ) 10 км    8/8 1080 м 
[Cu med, cong]
+24.2 +15.1 57 +33  1013.1  -1.1  754  276           
09 17.08.17 060 (СВ) 10 км    1/0 средняя 
[Ac trans]
+22.6 +15.6 65 +32  1012.8  -0.4  754  277    +24.6       
12 17.08.17 тихо ()   10 км    3/0 средняя 
[Ac trans]
+18 +15.8 87 +28  1013.3  0.4  754  282           
15 17.08.17 тихо ()   10 км    ясно 
+16.5 +15.6 94 +26  1013.4  754  283           
18 17.08.17 тихо ()   10 км    8/1 1000 м кучево-дожд., средняя 
[Cb cap|Ac trans]
+16.8 +16 95 +27  1013.1  -0.4  754  283           
21 17.08.17 060 (СВ) 10 км    9/6 1200 м средняя 
[Sc|Ac trans]
+16.8 +16.2 96 +29  1013.7  0.7  754  283  +15.7         
00 18.08.17 100 (В) 10 км  в посл. час ливневой дождь  10/8 210 м кучево-дожд., средняя 
[Cb cap|Ac As]
+17.7 +16.7 94 +30  1014.6  0.9  755  282           
03 18.08.17 090 (В) 10 км    9/8 960 м кучево-дожд., средняя 
[Cb cap|Ac trans]
+20.2 +16.2 78 +31  1014  -0.4  755  280           
06 18.08.17 100 (В) 10 км    9/9 840 м кучево-дожд. 
[Cb cap]
+22 +17.1 74 +34  1013.2  -1  754  277           
09 18.08.17 100 (В) 10 км    4/1 1000 м верхняя 
[Sc|Ci fib]
+22.2 +17.6 75 +36  1012.5  -0.4  753  277    +23.1  0.0     
12 18.08.17 090 (В) 10 км    4/0 средняя, верхняя 
[Ac trans|Ci fib]
+18.3 +17.5 95 +32  1013.5  0.7  754  281           
15 18.08.17 130 (ЮВ) 10 км  местами туман поземный  6/5 1000 м верхняя 
[Sc|Ci fib]
+17 +16.8 99 +30  1013  -0.3  754  282           
18 18.08.17 тихо ()   10 км    5/3 1000 м верхняя 
[Sc|Ci fib]
+17.3 +17.2 99 +30  1012.5  -0.6  753  282           
21 18.08.17 тихо ()   10 км  местами туман поземный  4/3 1000 м верхняя 
[Sc|Ci fib]
+17.1 +17 99 +29  1012.6  753  282  +16.6         
00 19.08.17 240 (ЮЗ) 10 км    5/3 1000 м верхняя 
[Sc|Ci fib]
+24.6 +19.5 73 +42  1012.7  0.3  754  274           
03 19.08.17 240 (ЮЗ) 10 км    9/4 600 м верхняя 
[Cu med, cong|Ci fib]
+27.2 +20 65 +46  1011.8  -0.8  753  271           
06 19.08.17 230 (ЮЗ) 10 км  слаб. ливневой дождь  9/4 900 м кучево-дожд., средняя 
[Cb cap|Ac trans]
+26 +20.8 73 +46  1010.6  -1.2  752  272           
Время (UTC), дата Ветер
(°,м/с) 
Видим.   Явления Облачность Т
(°С)
Тd
(°С)
f(%) Тe
(°С)
Pmin
(гПа)
dP
(гПа)
Po
(мм)
O2
(г/м3)
Тmin Tmax R s Состояние
почвы

Для получения пояснительной информации подведите курсор к названию столбца.

ПОГОДА в Хабаровске - архив

Всё, что Вы хотите узнать о погоде в Хабаровске - удобно и подробно!

Выберите нужную дату (начиная с 1 января 2015* года) и нажмите кнопку "Найти".
Будут отображены архивные сводки погоды по пункту Хабаровск, начиная с указанной даты.


Отображать данные в формате CSV (для использования в таблицах Excel)


Внимание! Наш архив погоды предназначен исключительно для личного некоммерческого использования в познавательных целях. Если Вам необходимы официальные справки о состоянии погоды (для производственных, юридических, коммерческих и т.п. целей), обращайтесь в органы Росгидромета.

*Примечание: данная дата относится к архиву по метеостанциям СССР (Россия, СНГ, Балтия).
Архив по метеостанциям Зарубежной Европы и Азии (кроме Китая) хранится 10 дней, по другим регионам земного шара (Китай, Африка, Америка, Австралия, Океания) - 1 день.

Хабаровск - район местоположения метеостанции


Название, широта, долгота, высота метеостанции:
Хабаровск 48.5°ш. 135.2°д. 76 м над ур. моря [Российская Федерация]

Дополнительная информация

В oтличие oт бoльшинства пoгoдных сайтoв мы публикуем пoдрoбную метеoинфoрмацию в детальнoм прoфессиoнальнoм фoрмате.

Характеристики температуры и влажнoсти вoздуха измеряются на высoте 2 м в тени вдали oт зданий и деревьев.
Скoрoсть ветра измеряется на высoте 10 м (на урoвне рoста челoвека скoрoсть ветра ниже в 1.5-2 раза). Если метеoстанция нахoдится в гoрoде или в лесу, тo скoрoсть ветра занижена на 2-4 м/с пo сравнению с oткрытым местoм. Скoрoсть ветра над акватoриями крупных рек и oзёр, а также на вершинах хoлмoв на 2-5 м/с выше, чем в oбычных услoвиях.
Атмoсфернoе давление в разных тoчках местнoсти мoжет значительнo oтличаться oт давления на метеoстанции, в зависимoсти oт услoвий рельефа (при пoдъёме на 10 м давление пoнижается примернo на 1 мм рт.ст.).